Muskegon, MI

4:07 PM EDT on March 24, 2017 (GMT -0400)
Muskegon County

Weather History for KMKG - March, 2014

Change the Weather History Date:

Thursday, March 27, 2014

  Actual Average Record
Temperature  
Mean Temperature 40 °F 39 °F  
Max Temperature 45 °F 48 °F 77 °F (1945)
Min Temperature 34 °F 30 °F 2 °F (1996)
Degree Days  
Heating Degree Days 25 26  
Month to date heating degree days 1048 830  
Since 1 July heating degree days 6188 5562  
Cooling Degree Days 0 0  
Month to date cooling degree days 0 0  
Year to date cooling degree days 0 0  
Moisture  
Dew Point 30 °F    
Average Humidity 65    
Maximum Humidity 92    
Minimum Humidity 37    
Precipitation  
Precipitation 0.57 in 0.07 in 2.10 in (1991)
Month to date precipitation 1.24 1.93  
Year to date precipitation 6.37 5.79  
Snow  
Snow T in 0.20 in 8.00 in (1940)
Month to date snowfall 7.5 8.3  
Since 1 July snowfall 131.1 90.7  
Snow Depth 3.00 in    
Sea Level Pressure  
Sea Level Pressure 29.78 in    
Wind  
Wind Speed 15 mph (SSE)    
Max Wind Speed 25 mph    
Max Gust Speed 36 mph    
Visibility 6 miles    
Events Rain , Snow    
T = Trace of Precipitation, MM = Missing Value Source: NWS Daily Summary

Daily Weather History Graph

Daily Weather History Graph

Search for Another Location

Airport or City:

Trip Planner

Search our weather history database for the weather conditions in past years. The results will help you decide how hot, cold, wet, or windy it might be!

Date:

Astronomy

Mar. 27, 2014 Rise Set
Actual Time 7:35 AM EDT 8:05 PM EDT
Civil Twilight 7:07 AM EDT 8:34 PM EDT
Nautical Twilight 6:33 AM EDT 9:07 PM EDT
Astronomical Twilight 5:58 AM EDT 9:42 PM EDT
Moon 5:31 AM EDT (3/27) 4:47 PM EDT (3/27)
Length of Visible Light 13h 26m
Length of Day
12h 29m
Waning Crescent, 13% of the Moon is Illuminated
Mar 27
Waning Crescent
Mar 30
New
Apr 7
First Quarter
Apr 15
Full
Apr 22
Last Quarter

Hourly Weather History & Observations

Time (EDT) Temp. Windchill Dew Point Humidity Pressure Visibility Wind Dir Wind Speed Gust Speed Precip Events Conditions
12:55 AM 33.1 °F 25.5 °F 17.1 °F 52% 30.07 in 10.0 mi SSE 9.2 mph - N/A   Overcast
1:55 AM 34.0 °F 27.2 °F 16.0 °F 48% 30.05 in 10.0 mi SSE 8.1 mph - N/A   Overcast
2:55 AM 36.0 °F 27.5 °F 16.0 °F 44% 30.02 in 10.0 mi SSE 12.7 mph 21.9 mph N/A   Overcast
3:55 AM 37.0 °F 29.8 °F 15.1 °F 41% 29.99 in 10.0 mi South 10.4 mph - N/A   Overcast
4:55 AM 37.0 °F 28.5 °F 16.0 °F 42% 29.98 in 10.0 mi South 13.8 mph - N/A   Overcast
5:55 AM 37.9 °F 28.9 °F 16.0 °F 41% 29.95 in 10.0 mi South 16.1 mph 26.5 mph N/A   Overcast
6:55 AM 39.0 °F 29.3 °F 16.0 °F 39% 29.93 in 10.0 mi South 19.6 mph 27.6 mph N/A   Overcast
7:55 AM 36.0 °F 25.0 °F 24.1 °F 62% 29.94 in 8.0 mi South 20.7 mph 29.9 mph 0.00 in Rain , Snow Light Rain
8:20 AM 35.1 °F 24.5 °F 26.1 °F 70% 29.91 in 3.0 mi South 18.4 mph 25.3 mph 0.00 in Snow Light Snow
8:55 AM 35.1 °F 25.2 °F 28.0 °F 76% 29.92 in 5.0 mi South 16.1 mph 24.2 mph 0.02 in Snow Light Snow
9:11 AM 35.1 °F 25.5 °F 28.9 °F 78% 29.90 in 1.8 mi South 15.0 mph 25.3 mph 0.00 in Snow Light Snow
9:33 AM 35.1 °F 25.5 °F 30.0 °F 82% 29.89 in 3.0 mi South 15.0 mph 23.0 mph 0.02 in Snow Light Snow
9:55 AM 35.1 °F 26.4 °F 30.9 °F 85% 29.90 in 4.0 mi SSE 12.7 mph - 0.03 in Rain , Snow Light Rain
10:55 AM 35.1 °F 25.9 °F 30.9 °F 85% 29.88 in 4.0 mi SSE 13.8 mph - 0.03 in Rain , Snow Light Rain
11:23 AM 35.1 °F 26.4 °F 30.9 °F 85% 29.85 in 5.0 mi SSE 12.7 mph - 0.00 in Rain , Snow Light Rain
11:55 AM 36.0 °F 26.3 °F 30.9 °F 82% 29.86 in 5.0 mi SSE 16.1 mph 21.9 mph 0.01 in Rain , Snow Light Rain
12:55 PM 37.0 °F 28.1 °F 32.0 °F 82% 29.83 in 9.0 mi South 15.0 mph 26.5 mph 0.00 in Rain Light Rain
1:07 PM 37.0 °F 28.9 °F 32.0 °F 82% 29.80 in 10.0 mi South 12.7 mph 24.2 mph 0.00 in Rain Light Rain
1:55 PM 39.0 °F 30.3 °F 32.0 °F 76% 29.79 in 10.0 mi South 16.1 mph 25.3 mph 0.00 in   Overcast
2:55 PM 39.9 °F 30.5 °F 32.0 °F 73% 29.76 in 10.0 mi South 19.6 mph 29.9 mph N/A   Overcast
3:55 PM 37.9 °F 27.9 °F 34.0 °F 86% 29.73 in 3.0 mi South 19.6 mph - N/A   Overcast
4:55 PM 41.0 °F 31.9 °F 32.0 °F 70% 29.70 in 10.0 mi South 19.6 mph 25.3 mph N/A   Overcast
5:55 PM 39.9 °F 33.4 °F 35.1 °F 83% 29.67 in 9.0 mi SSE 10.4 mph - 0.03 in Rain Light Rain
6:55 PM 39.0 °F 32.8 °F 35.1 °F 86% 29.65 in 3.0 mi SE 9.2 mph - 0.04 in Rain Light Rain
7:12 PM 39.0 °F 32.3 °F 35.1 °F 86% 29.63 in 1.5 mi SE 10.4 mph - 0.00 in Rain Light Rain
7:38 PM 39.0 °F 32.3 °F 35.1 °F 86% 29.62 in 2.0 mi SE 10.4 mph - 0.01 in Rain Light Rain
7:55 PM 39.0 °F 31.8 °F 35.1 °F 86% 29.62 in 2.0 mi SE 11.5 mph - 0.02 in Rain Light Rain
7:58 PM 39.0 °F 31.8 °F 35.1 °F 86% 29.61 in 1.0 mi SE 11.5 mph - 0.00 in Rain Light Rain
8:20 PM 39.0 °F 31.4 °F 36.0 °F 89% 29.59 in 1.0 mi SE 12.7 mph - 0.01 in Rain Light Rain
8:55 PM 39.9 °F 32.5 °F 37.0 °F 89% 29.58 in 1.5 mi SSE 12.7 mph - 0.02 in Rain Light Rain
9:18 PM 39.9 °F 32.9 °F 37.0 °F 89% 29.55 in 4.0 mi SSE 11.5 mph - 0.04 in Rain Light Rain
9:25 PM 39.9 °F 32.1 °F 37.0 °F 89% 29.55 in 5.0 mi SE 13.8 mph - 0.04 in Rain Light Rain
9:49 PM 41.0 °F 33.9 °F 37.4 °F 87% 29.54 in 2.5 mi SSE 12.7 mph - 0.09 in Rain Rain
9:55 PM 41.0 °F 33.5 °F 37.9 °F 89% 29.56 in 3.0 mi SSE 13.8 mph - 0.11 in Rain Rain
10:55 PM 43.0 °F 36.0 °F 37.9 °F 82% 29.53 in 4.0 mi SSE 13.8 mph 24.2 mph 0.11 in Rain Rain
11:55 PM 44.1 °F 36.2 °F 39.9 °F 85% 29.52 in 4.0 mi South 18.4 mph 24.2 mph 0.08 in Rain Light Rain